[[{"header":{"parameterUnit":"m.s-1","parameterCategory":1,"la1":30.2992,"la2":30.254,"lo1":-89.0895,"lo2":-89.0443,"dy":0.0025,"dx":0.0025,"nx":19,"ny":19,"refTime":"2026-05-01T03:00:00:Z","depth":0,"parameterNumber":2,"parameterNumberName":"U-component_of_WINDS"},"data":[0,0,0,-0.1495,-0.1498,-0.1661,-0.1661,-0.1874,-0.1876,0,0,0,0,0,0,0,0,0,0,0,-0.1448,-0.145,-0.1495,-0.1499,-0.1661,-0.1661,-0.1874,-0.1876,0,0,0,0,0,0,0,0,0,0,0,-0.1448,-0.1449,-0.1451,-0.1499,-0.1661,-0.1661,-0.1874,-0.175,0,0,0,0,0,0,0,0,0,0,-0.1592,-0.1549,-0.1449,-0.1451,-0.15,-0.166,-0.1662,-0.1744,-0.1758,-0.1803,0,-0.1841,0,-0.1862,-0.1891,-0.1892,0,0,0,-0.1499,-0.1538,-0.158,-0.1451,-0.1502,-0.166,-0.1588,-0.1752,-0.1767,-0.1821,-0.1844,-0.1852,-0.1865,-0.1892,-0.1893,-0.2148,-0.2149,0,0,-0.149,-0.1479,-0.1569,-0.159,-0.1563,-0.1582,-0.1593,-0.1761,-0.1786,-0.1845,-0.1857,-0.1869,-0.1894,-0.1895,-0.2147,-0.2148,0,0,0,-0.1464,-0.1473,-0.1511,-0.1581,-0.161,-0.1587,-0.1599,-0.1779,-0.1792,-0.1859,-0.1871,-0.1895,-0.1898,-0.2146,-0.2147,-0.2197,0,0,0,-0.1459,-0.1458,-0.1507,-0.1502,-0.1607,-0.1696,-0.1613,-0.178,-0.18,-0.187,-0.1895,-0.19,-0.2144,-0.2147,-0.2193,-0.2224,0,0,0,-0.1437,-0.1455,-0.1479,-0.1501,-0.157,-0.1693,-0.1716,-0.1785,-0.1807,-0.1892,-0.19,-0.2143,-0.2146,-0.2189,-0.2218,-0.2289,0,0,0,-0.1412,-0.1521,-0.1479,-0.1605,-0.1568,-0.1721,-0.1715,-0.183,-0.1908,-0.1896,-0.2145,-0.2147,-0.2188,-0.2214,-0.2285,-0.235,-0.2374,0,0,-0.1544,-0.1536,-0.1612,-0.1579,-0.1736,-0.1697,-0.1863,-0.1946,-0.1964,-0.2086,-0.2093,-0.2194,-0.2217,-0.2288,-0.2512,-0.2531,0,0,0,-0.165,-0.1704,-0.1748,-0.182,-0.1884,-0.1942,-0.2,-0.2031,-0.2134,-0.2024,-0.2238,-0.2252,-0.2294,-0.2326,-0.2343,-0.2381,-0.216,-0.216,-0.216,-0.1824,-0.1839,-0.1965,-0.2001,-0.2071,-0.2128,-0.2188,-0.2239,-0.2236,-0.2286,-0.2324,-0.2457,-0.2493,-0.2506,-0.2545,-0.2356,-0.2356,-0.2356,-0.2356,-0.2021,-0.2101,-0.2091,-0.221,-0.2227,-0.2328,-0.2387,-0.2381,-0.2479,-0.243,-0.2468,-0.2416,-0.2527,-0.2562,-0.236,-0.236,-0.2359,-0.2359,-0.2358,-0.214,-0.2181,-0.2214,-0.232,-0.2399,-0.2431,-0.2525,-0.2536,-0.2548,-0.2585,-0.2627,-0.2627,-0.263,-0.2603,-0.2604,-0.2604,-0.2605,-0.2605,-0.2605,-0.2252,-0.2287,-0.2364,-0.2438,-0.2486,-0.2551,-0.2607,-0.2655,-0.2712,-0.2713,-0.2714,-0.2707,-0.2533,-0.2491,-0.2613,-0.2611,-0.261,-0.261,-0.2609,-0.2453,-0.2408,-0.2527,-0.2575,-0.2664,-0.2743,-0.2754,-0.285,-0.2892,-0.2938,-0.2922,-0.2789,-0.2784,-0.2771,-0.2737,-0.2916,-0.2916,-0.2916,-0.2916,-0.2556,-0.2552,-0.2676,-0.2752,-0.2826,-0.2848,-0.2984,-0.3028,-0.3068,-0.3095,-0.3069,-0.3023,-0.3009,-0.3013,-0.2994,-0.2963,-0.3195,-0.3195,-0.3195,-0.2682,-0.2686,-0.2799,-0.2834,-0.2904,-0.2964,-0.3093,-0.3182,-0.3217,-0.3207,-0.3117,-0.3105,-0.303,-0.3005,-0.2997,-0.2968,-0.2911,0,0]},{"header":{"parameterUnit":"m.s-1","parameterCategory":1,"la1":30.2992,"la2":30.254,"lo1":-89.0895,"lo2":-89.0443,"dy":0.0025,"dx":0.0025,"nx":19,"ny":19,"refTime":"2026-05-01T03:00:00:Z","depth":0,"parameterNumber":3,"parameterNumberName":"V-component_of_WINDS"},"data":[0,0,0,-5.8344,-5.8349,-5.859,-5.8591,-5.892,-5.8923,0,0,0,0,0,0,0,0,0,0,0,-5.8288,-5.8291,-5.8343,-5.835,-5.859,-5.8591,-5.892,-5.8923,0,0,0,0,0,0,0,0,0,0,0,-5.8287,-5.829,-5.8294,-5.8351,-5.859,-5.8591,-5.8919,-5.8729,0,0,0,0,0,0,0,0,0,0,-5.8491,-5.8456,-5.8289,-5.8294,-5.8352,-5.859,-5.8591,-5.8719,-5.8741,-5.8821,0,-5.89,0,-5.8917,-5.8947,-5.8948,0,0,0,-5.8337,-5.8439,-5.8489,-5.8294,-5.8354,-5.8589,-5.8478,-5.8731,-5.8755,-5.885,-5.8904,-5.8916,-5.8923,-5.8949,-5.8951,-5.9464,-5.9467,0,0,-5.8324,-5.834,-5.8473,-5.8506,-5.8474,-5.847,-5.8486,-5.8745,-5.8805,-5.8905,-5.8923,-5.8928,-5.8952,-5.8954,-5.9461,-5.9465,0,0,0,-5.8294,-5.8331,-5.8374,-5.8493,-5.8535,-5.8478,-5.8495,-5.8793,-5.8806,-5.8926,-5.8932,-5.8954,-5.8958,-5.9458,-5.9462,-5.9628,0,0,0,-5.8285,-5.8313,-5.8369,-5.8382,-5.8531,-5.8668,-5.8538,-5.8788,-5.8817,-5.893,-5.8954,-5.8962,-5.9454,-5.946,-5.9616,-5.9703,0,0,0,-5.8267,-5.8311,-5.8352,-5.8382,-5.8486,-5.8663,-5.8691,-5.8794,-5.8821,-5.8949,-5.8963,-5.9452,-5.9459,-5.9606,-5.9686,-5.9844,0,0,0,-5.8251,-5.8494,-5.8355,-5.8627,-5.8485,-5.8764,-5.8689,-5.8896,-5.9025,-5.8956,-5.9455,-5.9462,-5.9603,-5.9676,-5.9833,-5.9981,-6.0044,0,0,-5.8566,-5.8533,-5.8692,-5.8574,-5.8883,-5.8726,-5.9058,-5.916,-5.9155,-5.936,-5.9373,-5.962,-5.9685,-5.9842,-6.0388,-6.0438,0,0,0,-5.8797,-5.8912,-5.899,-5.9115,-5.92,-5.9279,-5.9328,-5.9365,-5.9539,-5.9265,-5.9718,-5.9756,-5.9847,-5.9917,-5.996,-6.0037,-5.9495,-5.9494,-5.9493,-5.9267,-5.925,-5.9512,-5.9524,-5.9646,-5.9694,-5.979,-5.9848,-5.9793,-5.9901,-5.9962,-6.0296,-6.0379,-6.0411,-6.0491,-6.0037,-6.0038,-6.0039,-6.0039,-5.9728,-5.9888,-5.9811,-6.0038,-6.0017,-6.0206,-6.0261,-6.0216,-6.0387,-6.0248,-6.0328,-6.0179,-6.0466,-6.0536,-6.0051,-6.0049,-6.0048,-6.0046,-6.0046,-6.0036,-6.0109,-6.0152,-6.033,-6.0468,-6.0469,-6.0639,-6.0612,-6.0589,-6.0667,-6.0729,-6.0727,-6.0721,-6.0698,-6.07,-6.0701,-6.0702,-6.0702,-6.0703,-6.0339,-6.0381,-6.0528,-6.0638,-6.0714,-6.0811,-6.0859,-6.0933,-6.1007,-6.0974,-6.0975,-6.091,-6.0497,-6.0395,-6.0721,-6.0718,-6.0716,-6.0714,-6.0713,-6.0816,-6.0704,-6.0931,-6.1008,-6.1133,-6.1272,-6.1236,-6.1388,-6.1444,-6.1527,-6.1445,-6.1144,-6.1107,-6.1073,-6.0988,-6.1448,-6.1448,-6.1448,-6.1448,-6.1077,-6.1055,-6.1282,-6.1406,-6.1524,-6.1514,-6.1769,-6.1808,-6.183,-6.1864,-6.1793,-6.1677,-6.1643,-6.1626,-6.158,-6.1501,-6.2081,-6.2082,-6.2082,-6.1369,-6.1358,-6.1582,-6.1605,-6.17,-6.1782,-6.2021,-6.2164,-6.2165,-6.2107,-6.1889,-6.1862,-6.1675,-6.1616,-6.1555,-6.1484,-6.1338,0,0]}]]